Theta_e
304 305 307 310 308 309 310 308 304 298 299 302 304 302 303 303 302 304 303 301 304 306 305 305 304 305 305 306 307 307 308 309 310 311 312 315 316 312
302 301 302 304 304 306 305 305 306 303 299 303 304 305 301 299 299 299 300 297 298 300 301 301 301 301 302 302 303 304 305 306 307 309 310 313 306 304
298 298 299 299 300 300 302 302 302 302 299 301 303 304 303 297 297 296 296 295 295 295 297 298 298 298 298 299 299 300 301 303 304 308 306 304 302 300
295 295 297 299 296 297 298 299 298 299 298 295 298 299 299 300 297 294 293 292 290 292 295 296 296 296 296 296 297 301 301 303 303 302 300 299 300 299
294 294 294 294 292 292 293 295 295 296 296 294 294 296 297 293 290 288 287 287 288 290 292 293 292 292 293 294 296 296 297 296 296 296 295 295 295 294
291 292 292 291 290 290 291 290 291 292 292 292 292 293 294 292 285 285 287 285 285 286 287 287 289 289 291 293 295 293 292 292 292 292 292 292 292 293
287 288 289 289 289 291 289 289 289 288 289 289 289 290 290 291 285 286 284 285 283 284 284 284 285 285 288 290 290 291 292 292 291 291 291 291 290 289
285 286 287 285 287 290 290 290 290 287 286 286 287 286 287 288 287 286 286 281 280 283 283 282 284 284 284 285 291 292 291 291 290 291 289 288 287 285
284 285 285 286 286 287 288 290 289 289 290 287 285 286 285 286 287 285 283 282 281 282 281 281 284 282 284 287 291 291 289 290 290 288 286 285 283 282
284 284 285 285 286 286 286 285 285 285 286 286 286 286 286 286 285 284 283 281 282 282 283 278 279 278 280 281 289 290 289 287 286 284 283 282 281 280
284 285 285 285 287 288 285 283 283 284 287 289 288 289 289 288 286 284 281 279 278 279 282 279 278 276 276 276 283 286 285 284 283 282 281 280 279 277
284 285 285 287 287 287 284 283 282 284 284 284 284 284 284 283 283 282 284 279 278 277 281 277 278 277 273 275 275 275 277 280 280 279 279 278 277 272
283 283 285 286 286 286 288 285 283 286 285 281 282 280 279 278 278 278 278 279 278 275 280 279 276 276 273 272 273 273 273 272 272 272 275 276 275 273
283 284 284 285 286 287 286 287 287 285 283 281 279 277 276 275 275 275 275 275 276 275 276 278 275 274 271 270 270 272 271 271 271 270 270 272 273 273
284 284 286 286 287 286 287 286 284 283 279 278 277 276 277 277 277 275 275 274 273 273 274 274 275 274 272 268 268 269 269 269 269 269 269 268 268 269
284 284 284 286 286 285 284 283 282 280 279 278 278 278 278 276 275 275 273 272 270 269 272 272 272 273 270 269 268 265 268 265 268 267 267 268 268 268
284 280 282 281 280 280 278 277 279 279 279 280 278 274 275 275 274 273 274 272 269 267 268 269 269 269 269 268 263 266 265 265 266 266 264 263 266 267
284 277 279 282 280 279 277 277 277 277 278 277 276 275 273 272 273 273 272 269 267 267 266 266 266 265 264 265 269 262 263 263 264 265 264 259 260 265
283 281 281 281 279 278 277 276 274 274 274 275 273 272 273 272 271 270 270 268 266 265 264 264 264 261 258 257 261 270 261 261 262 260 262 261 260 264
283 281 281 279 278 276 275 274 272 271 269 269 270 270 270 270 268 267 267 265 264 260 261 261 261 260 256 257 254 261 268 260 258 258 260 262 264 268
276 278 278 277 275 275 274 272 270 268 265 265 267 267 266 267 265 264 265 264 263 259 257 258 261 263 259 255 254 255 260 267 265 259 260 258 258 260
277 276 275 274 273 272 271 268 267 266 265 265 265 266 264 266 265 263 261 261 258 258 256 258 258 256 255 256 252 254 257 259 263 266 267 265 256 253
275 273 272 271 271 270 269 268 266 264 263 263 263 262 261 262 261 262 259 258 257 256 253 254 255 257 255 255 252 254 253 254 257 257 259 266 267 268
Wind_Speed
6 6 6 6 5 6 7 7 9 18 21 8 8 6 6 6 8 9 9 11 17 19 17 18 19 20 21 22 23 25 26 28 29 31 31 31 30 27
5 6 6 5 5 5 6 7 8 11 18 12 11 10 5 5 8 9 10 11 13 15 17 17 17 19 19 20 22 24 26 27 28 29 30 10 27 23
6 7 8 6 6 5 6 8 9 9 13 21 12 12 12 6 5 8 7 8 6 12 14 15 16 16 18 18 21 24 26 25 30 16 24 22 24 20
9 8 10 7 8 7 7 11 11 11 11 20 17 13 12 13 7 6 5 4 4 7 12 15 15 15 15 15 18 20 3 9 15 21 19 17 22 22
10 10 11 10 10 8 9 11 10 10 11 13 17 13 13 4 4 4 4 3 3 8 12 13 13 12 13 14 11 6 15 25 24 25 23 23 21 19
10 10 11 10 10 11 12 14 12 10 11 10 13 13 11 6 2 3 6 3 2 1 4 6 9 11 15 15 9 19 21 22 21 20 19 18 18 19
11 11 11 11 14 14 11 13 13 12 10 10 11 11 11 9 6 2 4 1 1 1 0 0 1 3 5 14 14 18 19 19 20 19 17 20 19 18
13 13 11 10 12 17 23 24 20 15 13 10 11 12 13 9 4 5 6 2 1 1 1 2 2 3 3 3 15 18 19 18 15 19 22 20 18 16
12 13 13 8 10 16 20 21 18 19 20 15 15 13 14 10 9 9 4 2 2 1 2 3 3 6 5 6 15 17 15 16 23 22 20 18 16 14
11 11 15 16 15 15 15 15 13 11 12 10 12 13 11 9 8 2 2 4 5 4 3 4 4 6 6 6 11 15 24 24 22 20 18 16 14 12
13 15 13 14 16 21 15 16 14 12 10 17 15 15 10 7 1 2 4 5 3 2 4 3 3 4 7 9 10 24 23 21 19 18 16 14 12 11
14 14 17 14 20 23 14 13 13 9 5 3 3 7 11 12 16 7 1 4 4 3 2 3 2 2 4 4 7 8 8 18 17 16 15 13 12 5
13 13 8 19 22 22 21 7 9 9 2 2 4 5 7 8 8 8 9 5 4 4 5 2 2 2 3 4 3 6 5 5 6 8 13 12 11 8
12 10 10 21 22 20 14 14 5 2 1 3 5 5 6 6 7 8 10 10 10 8 6 4 3 2 3 3 3 3 4 4 4 5 4 8 9 9
8 14 23 21 16 7 8 5 4 2 3 4 4 4 4 4 4 5 7 9 12 12 10 9 6 5 4 3 3 2 3 3 4 4 4 3 3 2
10 8 11 12 5 4 3 4 3 3 3 4 3 4 3 3 4 2 3 5 7 7 11 12 9 6 6 5 6 3 4 2 3 3 3 3 3 3
10 4 5 4 2 0 2 3 3 3 2 3 4 3 4 4 3 2 3 5 6 2 4 6 9 11 9 4 5 4 3 3 3 3 3 2 3 4
9 3 5 5 3 2 2 2 3 3 2 3 3 3 3 3 3 4 5 5 6 4 3 2 1 2 3 8 9 2 2 2 2 2 2 2 2 3
8 6 6 4 3 3 2 2 1 2 2 3 3 3 3 3 4 3 4 5 5 4 3 2 3 3 3 2 2 11 3 1 1 3 1 0 2 4
7 6 5 4 4 3 3 3 3 2 3 3 3 2 2 3 3 3 3 4 5 2 3 3 4 3 3 4 3 1 6 2 2 1 2 2 4 9
3 3 3 4 4 4 4 3 4 3 2 2 2 2 2 3 4 3 4 5 5 2 3 2 1 3 2 3 4 3 3 4 2 2 2 1 2 3
4 4 4 4 4 5 4 4 4 3 3 3 2 3 2 3 4 4 3 4 2 2 2 1 2 2 4 3 2 1 2 3 7 8 6 3 4 2
3 3 5 4 4 5 5 4 4 3 3 3 3 2 3 3 3 4 4 4 4 4 2 1 2 3 2 2 3 1 2 2 3 4 3 5 5 9
Wind_Direction
288 275 265 271 260 258 267 268 284 298 294 293 294 227 236 242 248 254 256 254 251 262 272 277 281 284 286 289 292 290 290 288 287 282 283 275 260 181
304 303 293 289 280 293 286 275 259 270 285 293 290 291 248 239 240 244 251 252 258 266 275 283 286 286 288 291 289 288 285 283 283 282 278 220 123 134
309 304 298 293 291 283 283 286 282 275 277 290 290 291 290 256 246 238 248 252 255 258 273 282 286 288 291 293 294 291 283 283 273 261 122 133 125 133
306 299 294 295 287 285 284 285 284 282 277 280 289 292 287 289 274 255 252 250 255 270 283 287 289 290 295 300 300 289 283 79 99 108 108 126 115 109
302 298 298 300 296 291 287 287 285 285 282 281 288 292 292 285 266 245 252 262 254 272 285 294 295 296 293 292 291 22 91 95 97 96 97 97 94 89
292 287 287 284 283 294 296 292 288 281 278 276 281 287 291 304 260 266 269 204 261 214 275 288 295 294 282 264 149 110 107 101 98 96 93 93 98 101
291 285 280 273 265 274 292 288 289 288 282 281 279 286 288 285 264 233 249 241 221 214 199 344 295 320 25 89 103 114 109 102 99 97 101 103 100 99
294 293 286 273 275 281 295 290 285 287 282 279 282 280 283 279 262 251 259 211 258 214 157 28 5 49 34 68 120 110 104 100 99 109 101 98 97 96
291 297 301 301 295 306 305 299 294 289 284 287 283 281 286 289 288 274 225 158 127 110 78 77 38 52 35 75 91 92 91 103 98 94 94 95 94 89
292 295 303 309 308 305 302 301 298 291 281 274 268 279 281 282 266 257 143 93 84 58 33 70 42 45 23 18 65 90 90 91 93 94 92 89 85 80
305 308 305 301 301 308 306 306 303 293 283 287 298 298 308 316 249 103 102 112 82 61 41 81 57 66 42 33 56 80 82 84 86 85 81 76 70 71
309 306 303 300 315 312 306 294 291 304 313 305 2 23 33 39 45 40 109 107 113 110 43 93 127 135 76 22 45 43 52 70 76 75 70 65 65 51
312 311 309 317 314 308 307 304 297 300 4 48 50 47 40 38 36 39 41 39 83 73 1 104 118 89 68 115 76 59 60 57 64 51 51 57 57 66
307 306 307 309 308 313 316 304 333 72 44 61 62 50 51 48 45 52 54 59 57 65 14 46 101 119 118 102 108 94 66 50 60 63 54 45 43 32
292 295 305 307 317 336 3 3 355 356 65 76 72 70 72 90 88 75 72 72 62 44 31 30 63 66 62 101 122 122 119 52 56 59 50 45 36 23
274 278 286 301 299 338 324 7 9 39 83 94 91 72 67 53 64 34 81 87 70 48 36 38 44 65 79 63 91 82 69 98 38 55 41 29 22 19
289 242 282 258 236 209 357 10 17 26 71 91 96 90 79 71 59 2 46 55 76 67 53 44 56 64 59 80 73 60 69 69 59 35 38 8 355 353
279 226 263 238 187 166 140 76 35 25 38 69 79 85 96 97 86 64 71 83 96 82 68 9 58 68 52 42 70 85 49 85 31 13 11 46 311 304
261 239 245 200 159 138 122 109 121 19 29 60 74 81 94 92 93 84 89 94 84 82 35 13 28 81 76 85 310 51 109 1 13 8 20 317 275 314
249 225 211 163 159 153 145 140 117 81 66 70 69 72 84 109 98 93 102 112 113 92 69 32 43 35 113 170 161 269 62 76 72 322 317 336 296 311
188 161 150 146 137 133 134 122 121 113 110 102 80 88 92 113 102 96 99 105 120 103 94 65 71 40 85 59 42 347 314 43 30 193 260 18 321 334
172 158 143 137 142 140 134 134 126 122 115 105 102 97 75 99 117 122 116 119 102 115 112 97 359 31 56 92 174 246 325 333 336 330 323 260 159 285
304 157 147 139 137 135 133 141 125 121 119 120 119 101 96 105 100 99 106 102 113 105 117 85 25 42 53 102 148 250 328 307 321 335 316 355 340 303